Regional Weather Roundup
Issued by NWS

Home | Current Version | Previous Version | Graphics & Text | Print | Product List | Glossary On
Versions: 1 2 3 4 5 6 7 8 9 10 11 12 13 14 15 16 17 18 19 20 21 22 23 24 25 26 27 28 29 30 31 32 33 34 35 36 37 38 39 40 41 42 43 44 45 46 47 48 49 50
000
ASUS43 KOAX 230702
RWRNE

WEATHER ROUNDUP FOR NEBRASKA
NATIONAL WEATHER SERVICE OMAHA NE
200 AM CDT SUN JUL 23 2017

NOTES: SATELLITE DATA IS BEING USED TO AUGMENT CLOUD COVER ABOVE
       12000 FEET.
       "FAIR" INDICATES FEW OR NO CLOUDS BELOW 12,000 FEET WITH NO
       SIGNIFICANT WEATHER AND/OR OBSTRUCTIONS TO VISIBILITY.


NEZ001>004-019>022-054>056-230800-
NEBRASKA PANHANDLE

CITY           SKY/WX    TMP DP  RH WIND       PRES   REMARKS
SCOTTSBLUFF    CLEAR     67  50  54 E6        30.13S
ALLIANCE       CLEAR     60  45  57 W3        30.12F
CHADRON        CLEAR     62  53  72 CALM      30.08F
GORDON         FAIR      62  57  85 CALM      30.11S
KIMBALL        CLEAR     63  54  74 S7        30.20S
SIDNEY         CLEAR     57  46  66 SW8       30.17S
$$

NEZ057>060-069>072-079>082-230800-
SOUTHWEST NEBRASKA

CITY           SKY/WX    TMP DP  RH WIND       PRES   REMARKS
NORTH PLATTE   CLEAR     59  57  93 CALM      30.06F
IMPERIAL       CLEAR     64  54  69 W5        30.09F
LEXINGTON      CLEAR     65  63  93 W5        30.04S
MCCOOK         CLEAR     63  61  93 W3        30.04F
OGALLALA       CLEAR     61  52  73 CALM      30.11S
$$

NEZ005>010-023>029-035>040-094-230800-
NORTH CENTRAL NEBRASKA

CITY           SKY/WX    TMP DP  RH WIND       PRES   REMARKS
VALENTINE      CLEAR     71  45  39 VRB3      30.05R
AINSWORTH      CLEAR     70  55  59 W6        30.02S
BROKEN BOW     CLEAR     63  61  93 CALM      30.03F
O`NEILL        CLEAR     67  62  84 SW6       29.99R
ORD            CLEAR     63  60  90 SW3       29.99F FOG
THEDFORD       CLEAR     65  53  63 W5        30.07S
$$

NEZ041-046>049-061>064-073>077-083>087-230800-
SOUTH CENTRAL NEBRASKA

CITY           SKY/WX    TMP DP  RH WIND       PRES   REMARKS
GRAND ISLAND   CLEAR     66  66 100 CALM      29.99F
AURORA         CLEAR     67  67  99 CALM      29.98F
HASTINGS       CLEAR     71  67  87 N3        30.00F
HEBRON         CLEAR     71  68  89 CALM      29.95F
HOLDREGE       CLEAR     68  66  94 NW3       30.01F FOG
KEARNEY        CLEAR     70  67  90 NW5       30.01S
YORK           MOCLDY    68  68 100 CALM      29.98S FOG
$$

NEZ011>018-030>034-042>045-230800-
NORTHEAST NEBRASKA

CITY           SKY/WX    TMP DP  RH WIND       PRES   REMARKS
NORFOLK        CLEAR     65  63  93 CALM      29.96R
ALBION         CLEAR     61  60  96 CALM      29.98S
BLAIR          PTCLDY    72  71  96 W5        29.94F FOG
COLUMBUS       CLEAR     65  63  93 NW5       29.97S
FREMONT        CLOUDY    70  69  96 CALM      29.96S
TEKAMAH        CLEAR     67  65  93 SW6       29.93S FOG
WAYNE          PTCLDY    62  62  99 S3        29.95S
$$

NEZ050>053-065>068-078-088>093-230800-
SOUTHEAST NEBRASKA

CITY           SKY/WX    TMP DP  RH WIND       PRES   REMARKS
LINCOLN        PTCLDY    73  70  90 W5        29.95F
OMAHA EPPLEY   MOCLDY    72  69  90 N3        29.93S
FALLS CITY     CLOUDY    76  68  76 CALM      29.92S
NEBRASKA CITY  MOCLDY    75  75 100 CALM      29.94S
PLATTSMOUTH    CLEAR     71  69  91 W3        29.93F
$$

NEZ044-045-051>053-067-230800-
OMAHA AREA

CITY           SKY/WX    TMP DP  RH WIND       PRES   REMARKS
OMAHA EPPLEY   MOCLDY    72  69  90 N3        29.93S
BLAIR          PTCLDY    72  71  96 W5        29.94F FOG
FREMONT        CLOUDY    70  69  96 CALM      29.96S
MILLARD        CLEAR     75  72  92 NW3       29.93S
OFFUTT AFB     PTCLDY    73  69  86 SW3       29.92F
PLATTSMOUTH    CLEAR     71  69  91 W3        29.93F
WAHOO          FAIR      68  66  94 CALM      29.94F
$$




USA.gov is the U.S. government's official web portal to all federal, state and local government web resources and services.